When you browse on this site, cookies collect data to enhance your experience and personalize the content and advertising you see.
Visit our Privacy Policy to learn more. By continuing to use the site, you agree to this use of cookies and data.
  • In Latvia
  • List of Countries
  • For 7 days
  • Water Temperature
  • Weather Map
  • Weather Widgets
  • user-avatar
    Login

    Hourly Weather Naiham

    Today, 22 January, Wednesday

    Time Temperature Precipitation Wind Pressure Humidity
    00:00 +16°C° 0 mm 0 mps 710 mmHg 98%
    01:00 +16°C° 0 mm 0 mps 710 mmHg 99%
    02:00 +16°C° 0 mm 0 mps 709 mmHg 98%
    03:00 +16°C° 0 mm 0 mps 709 mmHg 98%
    04:00 +16°C° 0 mm 0 mps 709 mmHg 98%
    05:00 +15°C° 0 mm 0 mps 709 mmHg 97%
    06:00 +15°C° 0 mm 0 mps 709 mmHg 97%
    07:00 +15°C° 0 mm 0 mps 709 mmHg 97%
    08:00 +18°C° 0 mm 0 mps 710 mmHg 87%
    09:00 +21°C° 0 mm 0 mps 711 mmHg 76%
    10:00 +23°C° 0 mm 0 mps 711 mmHg 65%
    11:00 +25°C° 0 mm 0 mps 710 mmHg 60%
    12:00 +28°C° 0 mm 1 mps 710 mmHg 54%
    13:00 +30°C° 0 mm 1 mps 709 mmHg 48%
    14:00 +29°C° 0 mm 1 mps 708 mmHg 52%
    15:00 +28°C° 0 mm 1 mps 708 mmHg 56%
    16:00 +28°C° 0 mm 2 mps 707 mmHg 59%
    17:00 +25°C° 0 mm 1 mps 707 mmHg 72%
    18:00 +23°C° 0 mm 1 mps 707 mmHg 84%
    19:00 +21°C° 0 mm 1 mps 707 mmHg 96%
    20:00 +21°C° 0 mm 1 mps 708 mmHg 95%
    21:00 +21°C° 0 mm 1 mps 708 mmHg 95%
    22:00 +19°C° 0 mm 0 mps 709 mmHg 94%
    23:00 +19°C° 0 mm 0 mps 709 mmHg 94%

    Tomorrow, 23 January, Thursday

    Time Temperature Precipitation Wind Pressure Humidity
    00:00 +19°C° 0 mm 0 mps 708 mmHg 94%
    01:00 +19°C° 0 mm 0 mps 708 mmHg 94%
    02:00 +18°C° 0 mm 0 mps 708 mmHg 95%
    03:00 +18°C° 0 mm 0 mps 707 mmHg 95%
    04:00 +18°C° 0 mm 0 mps 707 mmHg 95%
    05:00 +18°C° 0 mm 0 mps 707 mmHg 96%
    06:00 +17°C° 0 mm 0 mps 708 mmHg 96%
    07:00 +17°C° 0 mm 0 mps 708 mmHg 96%
    08:00 +19°C° 0 mm 0 mps 708 mmHg 88%
    09:00 +20°C° 0 mm 0 mps 709 mmHg 80%
    10:00 +22°C° 0 mm 0 mps 709 mmHg 72%
    11:00 +26°C° 0 mm 1 mps 709 mmHg 66%
    12:00 +27°C° 0 mm 1 mps 708 mmHg 60%
    13:00 +28°C° 0 mm 1 mps 707 mmHg 55%
    14:00 +28°C° 0.1 mm 2 mps 707 mmHg 60%
    15:00 +27°C° 0.1 mm 2 mps 706 mmHg 65%
    16:00 +26°C° 0.1 mm 2 mps 705 mmHg 70%
    17:00 +24°C° 0.4 mm 1 mps 706 mmHg 78%
    18:00 +22°C° 0.4 mm 1 mps 706 mmHg 86%
    19:00 +21°C° 0.4 mm 1 mps 706 mmHg 95%
    20:00 +21°C° 0.1 mm 1 mps 707 mmHg 95%
    21:00 +21°C° 0.1 mm 1 mps 707 mmHg 96%
    22:00 +21°C° 0.1 mm 1 mps 708 mmHg 96%
    23:00 +19°C° 0 mm 0 mps 708 mmHg 97%

    Day after tomorrow, 24 January, Friday

    Time Temperature Precipitation Wind Pressure Humidity
    00:00 +19°C° 0 mm 0 mps 707 mmHg 97%
    01:00 +18°C° 0 mm 0 mps 707 mmHg 97%
    02:00 +18°C° 0 mm 0 mps 707 mmHg 97%
    03:00 +18°C° 0 mm 0 mps 707 mmHg 97%
    04:00 +18°C° 0 mm 0 mps 706 mmHg 96%
    05:00 +18°C° 0 mm 0 mps 707 mmHg 96%
    06:00 +18°C° 0 mm 0 mps 707 mmHg 95%
    07:00 +18°C° 0 mm 0 mps 708 mmHg 94%
    08:00 +19°C° 0 mm 0 mps 708 mmHg 89%
    09:00 +22°C° 0 mm 1 mps 708 mmHg 83%
    10:00 +23°C° 0 mm 1 mps 709 mmHg 77%
    11:00 +24°C° 0 mm 1 mps 708 mmHg 72%
    12:00 +26°C° 0 mm 1 mps 707 mmHg 67%
    13:00 +27°C° 0 mm 1 mps 707 mmHg 62%
    14:00 +26°C° 0.5 mm 1 mps 706 mmHg 69%
    15:00 +25°C° 0.5 mm 2 mps 706 mmHg 76%
    16:00 +24°C° 0.5 mm 2 mps 705 mmHg 83%
    17:00 +23°C° 0.7 mm 1 mps 705 mmHg 88%
    18:00 +22°C° 0.7 mm 1 mps 705 mmHg 93%
    19:00 +21°C° 0.7 mm 1 mps 706 mmHg 98%
    20:00 +21°C° 0.6 mm 1 mps 706 mmHg 98%
    21:00 +21°C° 0.6 mm 1 mps 706 mmHg 98%
    22:00 +21°C° 0.6 mm 1 mps 707 mmHg 98%
    23:00 +20°C° 0.2 mm 1 mps 707 mmHg 98%

    25 January, Saturday

    Time Temperature Precipitation Wind Pressure Humidity
    00:00 +20°C° 0.2 mm 1 mps 706 mmHg 98%
    01:00 +18°C° 0.2 mm 0 mps 706 mmHg 99%
    02:00 +18°C° 0.4 mm 0 mps 706 mmHg 98%
    03:00 +18°C° 0.4 mm 0 mps 706 mmHg 98%
    04:00 +18°C° 0.4 mm 0 mps 705 mmHg 98%
    05:00 +17°C° 1 mm 0 mps 706 mmHg 98%
    06:00 +17°C° 1 mm 0 mps 706 mmHg 98%
    07:00 +17°C° 1 mm 0 mps 706 mmHg 99%
    08:00 +18°C° 0.3 mm 0 mps 706 mmHg 96%
    09:00 +19°C° 0.3 mm 0 mps 706 mmHg 94%
    10:00 +20°C° 0.3 mm 0 mps 707 mmHg 92%
    11:00 +23°C° 0.4 mm 1 mps 706 mmHg 85%
    12:00 +25°C° 0.4 mm 1 mps 706 mmHg 77%
    13:00 +26°C° 0.4 mm 1 mps 705 mmHg 70%
    14:00 +25°C° 0.6 mm 1 mps 704 mmHg 75%
    15:00 +25°C° 0.6 mm 1 mps 704 mmHg 79%
    16:00 +24°C° 0.6 mm 2 mps 703 mmHg 84%
    17:00 +23°C° 1.3 mm 1 mps 704 mmHg 88%
    18:00 +21°C° 1.3 mm 1 mps 704 mmHg 93%
    19:00 +20°C° 1.3 mm 1 mps 705 mmHg 98%
    20:00 +19°C° 1.7 mm 1 mps 705 mmHg 98%
    21:00 +19°C° 1.7 mm 1 mps 706 mmHg 98%
    22:00 +19°C° 1.7 mm 1 mps 707 mmHg 98%
    23:00 +18°C° 0.7 mm 1 mps 707 mmHg 98%

    26 January, Sunday

    Time Temperature Precipitation Wind Pressure Humidity
    00:00 +16°C° 0.7 mm 1 mps 706 mmHg 98%
    01:00 +16°C° 0.7 mm 1 mps 706 mmHg 98%
    02:00 +15°C° 0.1 mm 1 mps 706 mmHg 97%
    03:00 +15°C° 0.1 mm 1 mps 706 mmHg 97%
    04:00 +14°C° 0.1 mm 1 mps 706 mmHg 97%
    05:00 +14°C° 0 mm 1 mps 707 mmHg 97%
    06:00 +14°C° 0 mm 1 mps 707 mmHg 97%
    07:00 +13°C° 0 mm 1 mps 707 mmHg 97%
    08:00 +14°C° 0 mm 1 mps 708 mmHg 94%
    09:00 +14°C° 0 mm 1 mps 708 mmHg 91%
    10:00 +15°C° 0 mm 1 mps 709 mmHg 88%
    11:00 +15°C° 0 mm 1 mps 708 mmHg 85%
    12:00 +15°C° 0 mm 1 mps 708 mmHg 81%
    13:00 +16°C° 0 mm 1 mps 707 mmHg 77%
    14:00 +16°C° 0 mm 1 mps 707 mmHg 77%
    15:00 +15°C° 0 mm 1 mps 707 mmHg 77%
    16:00 +15°C° 0 mm 1 mps 706 mmHg 78%
    17:00 +15°C° 0 mm 1 mps 707 mmHg 80%
    18:00 +14°C° 0 mm 1 mps 707 mmHg 83%
    19:00 +14°C° 0 mm 1 mps 707 mmHg 85%
    20:00 +14°C° 0 mm 1 mps 708 mmHg 85%
    21:00 +14°C° 0 mm 1 mps 708 mmHg 85%
    22:00 +14°C° 0 mm 1 mps 709 mmHg 86%
    23:00 +13°C° 0 mm 1 mps 708 mmHg 85%

    27 January, Monday

    Time Temperature Precipitation Wind Pressure Humidity
    00:00 +13°C° 0 mm 1 mps 708 mmHg 85%
    01:00 +12°C° 0 mm 0 mps 708 mmHg 85%
    02:00 +12°C° 0 mm 0 mps 708 mmHg 85%
    03:00 +13°C° 0 mm 1 mps 707 mmHg 85%
    04:00 +13°C° 0 mm 1 mps 707 mmHg 85%
    05:00 +13°C° 0 mm 1 mps 707 mmHg 86%
    06:00 +11°C° 0 mm 0 mps 708 mmHg 86%
    07:00 +11°C° 0 mm 0 mps 708 mmHg 87%
    08:00 +13°C° 0 mm 1 mps 708 mmHg 84%
    09:00 +13°C° 0 mm 1 mps 708 mmHg 81%
    10:00 +14°C° 0 mm 1 mps 709 mmHg 78%
    11:00 +15°C° 0 mm 1 mps 708 mmHg 77%
    12:00 +15°C° 0 mm 1 mps 708 mmHg 76%
    13:00 +16°C° 0 mm 1 mps 707 mmHg 74%
    14:00 +15°C° 0 mm 1 mps 707 mmHg 77%
    15:00 +15°C° 0 mm 1 mps 706 mmHg 79%
    16:00 +15°C° 0 mm 1 mps 706 mmHg 81%
    17:00 +14°C° 0 mm 1 mps 706 mmHg 85%
    18:00 +14°C° 0 mm 1 mps 707 mmHg 88%
    19:00 +13°C° 0 mm 1 mps 707 mmHg 92%
    20:00 +13°C° 0 mm 1 mps 707 mmHg 92%
    21:00 +13°C° 0 mm 1 mps 708 mmHg 93%
    22:00 +13°C° 0 mm 1 mps 708 mmHg 93%
    23:00 +13°C° 0 mm 1 mps 708 mmHg 93%
    Show more